Location: downtown San Diego
(32.7310°N, 117.1990°W)
Time: 12:13:46
(UTC-07:00)

DELTA 2 R/B (1) - Pass Details

Date: 14 June 2018
Orbit: 790 x 803 km, 39.6° (Epoch: 14 October)

Event Time Altitude Azimuth Distance (km) Brightness Sun altitude
Rises 20:29:30 0° 293° (WNW) 3,278 8.9 -6.5°
Reaches altitude 10° 20:32:01 10° 290° (WNW) 2,347 7.6 -7.0°
Maximum altitude 20:37:28 62° 210° (SSW) 884 3.8 -7.9°
Enters shadow 20:42:46 11° 131° (SE) 2,291 5.3 -8.8°
